Weather History for Twin Falls, ID

Change the Weather History Date:

Thursday, October 13, 2011

  Actual Average Record
Temperature  
Mean Temperature 55 °F -  
Max Temperature 71 °F 65 °F 80 °F (1992)
Min Temperature 39 °F 38 °F 18 °F (2002)
Degree Days  
Heating Degree Days 10 14  
Month to date heating degree days 139 149  
Since 1 July heating degree days 151 310  
Cooling Degree Days 0 0  
Month to date cooling degree days 20 0  
Year to date cooling degree days 736 678  
Growing Degree Days 4 (Base 50)    
Moisture  
Dew Point 35 °F    
Average Humidity 52    
Maximum Humidity 79    
Minimum Humidity 25    
Precipitation  
Precipitation 0.00 in 0.03 in 0.12 in (1981)
Month to date precipitation 0.99 0.30  
Year to date precipitation 8.12 7.75  
Sea Level Pressure  
Sea Level Pressure 30.04 in    
Wind  
Wind Speed 5 mph (SSW)    
Max Wind Speed 12 mph    
Max Gust Speed 15 mph    
Visibility 8 miles    
Events      
T = Trace of Precipitation, MM = Missing Value Source: NWS Daily Summary

Daily Weather History Graph

Daily Weather History Graph

Search for Another Location

Airport:

Trip Planner

Search our weather history database for the weather conditions in past years. The results will help you decide how hot, cold, wet, or windy it might be!

Date:

Astronomy

Oct. 13, 2011 Rise Set
Actual Time 7:48 AM MDT 6:59 PM MDT
Civil Twilight 7:20 AM MDT 7:27 PM MDT
Nautical Twilight 6:47 AM MDT 8:00 PM MDT
Astronomical Twilight 6:14 AM MDT 8:32 PM MDT
Moon 7:33 PM MDT (10/13) 9:27 AM MDT (10/13)
Length of Visible Light 12h 07m
Length of Day
11h 10m
Full, 98% of the Moon is Illuminated
Oct 13
Full
Oct 19
Last Quarter
Oct 26
New
Nov 2
First Quarter
Nov 10
Full

Hourly Weather History & Observations

Time (MDT) Temp. Windchill Dew Point Humidity Pressure Visibility Wind Dir Wind Speed Gust Speed Precip Events Conditions
12:53 AM 48.0 °F - 36.0 °F 63% 30.11 in 4.0 mi South 6.9 mph - N/A   Haze
1:53 AM 43.0 °F 40.3 °F 36.0 °F 76% 30.11 in 6.0 mi SSE 4.6 mph - N/A   Haze
2:53 AM 42.1 °F 39.2 °F 35.1 °F 76% 30.10 in 6.0 mi SSW 4.6 mph - N/A   Haze
3:53 AM 41.0 °F 38.0 °F 33.1 °F 73% 30.09 in 8.0 mi SE 4.6 mph - N/A   Clear
4:53 AM 39.9 °F 37.8 °F 34.0 °F 79% 30.09 in 5.0 mi South 3.5 mph - N/A   Haze
5:53 AM 41.0 °F 35.8 °F 34.0 °F 76% 30.09 in 7.0 mi South 8.1 mph - N/A   Clear
6:53 AM 41.0 °F 35.8 °F 34.0 °F 76% 30.09 in 6.0 mi South 8.1 mph - N/A   Haze
7:53 AM 41.0 °F - 32.0 °F 70% 30.11 in 10.0 mi Calm Calm - N/A   Clear
8:53 AM 48.9 °F - 34.0 °F 56% 30.10 in 10.0 mi Calm Calm - N/A   Scattered Clouds
9:53 AM 53.1 °F - 37.0 °F 55% 30.10 in 10.0 mi NNW 3.5 mph - N/A   Clear
10:20 AM 57.2 °F - 37.4 °F 48% 30.15 in 1.8 mi Variable 4.6 mph - N/A   Haze
10:53 AM 60.1 °F - 35.1 °F 39% 30.06 in 10.0 mi Calm Calm - N/A   Clear
11:53 AM 62.1 °F - 39.0 °F 43% 30.04 in 10.0 mi NNW 6.9 mph - N/A   Clear
12:53 PM 64.0 °F - 37.9 °F 38% 30.02 in 10.0 mi Variable 4.6 mph - N/A   Clear
1:53 PM 66.9 °F - 37.9 °F 34% 30.00 in 10.0 mi WNW 5.8 mph - N/A   Clear
2:53 PM 69.1 °F - 33.1 °F 26% 29.99 in 10.0 mi NW 5.8 mph - N/A   Clear
3:53 PM 69.1 °F - 33.1 °F 26% 29.97 in 10.0 mi NW 9.2 mph - N/A   Clear
4:53 PM 70.0 °F - 32.0 °F 25% 29.96 in 10.0 mi NNW 6.9 mph - N/A   Clear
6:53 PM 59.0 °F - 37.9 °F 46% 29.96 in 10.0 mi Calm Calm - N/A   Clear
7:53 PM 57.0 °F - 35.1 °F 44% 29.96 in 10.0 mi West 3.5 mph - N/A   Clear
8:53 PM 48.0 °F - 39.0 °F 71% 29.97 in 10.0 mi South 4.6 mph - N/A   Clear
9:53 PM 46.9 °F - 37.0 °F 68% 29.97 in 10.0 mi South 6.9 mph - N/A   Clear
10:53 PM 48.9 °F - 36.0 °F 61% 29.94 in 10.0 mi South 6.9 mph - N/A   Clear
11:53 PM 48.0 °F - 34.0 °F 58% 29.94 in 10.0 mi South 8.1 mph - N/A   Clear